TimeCDT,TemperatureF,Dew PointF,Humidity,Sea Level PressureIn,VisibilityMPH,Wind Direction,Wind SpeedMPH,Gust SpeedMPH,PrecipitationIn,Events,Conditions,WindDirDegrees,DateUTC
12:53 AM,75.0,64.0,69,29.79,10.0,ENE,5.8,-,N/A,,Clear,60,2012-08-03 05:53:00
1:53 AM,73.0,64.0,73,29.79,10.0,ENE,4.6,-,N/A,,Clear,60,2012-08-03 06:53:00
2:53 AM,72.0,63.0,73,29.79,10.0,ENE,6.9,-,N/A,,Clear,60,2012-08-03 07:53:00
3:53 AM,71.1,63.0,75,29.79,10.0,ENE,6.9,-,N/A,,Clear,70,2012-08-03 08:53:00
4:53 AM,70.0,63.0,78,29.81,10.0,East,6.9,-,N/A,,Clear,100,2012-08-03 09:53:00
5:53 AM,68.0,62.1,81,29.82,9.0,NE,3.5,-,N/A,,Clear,50,2012-08-03 10:53:00
6:53 AM,69.1,63.0,81,29.82,8.0,East,4.6,-,N/A,,Clear,90,2012-08-03 11:53:00
7:53 AM,72.0,64.9,78,29.83,9.0,East,3.5,-,N/A,,Clear,80,2012-08-03 12:53:00
8:53 AM,77.0,68.0,74,29.84,10.0,Calm,Calm,-,N/A,,Clear,0,2012-08-03 13:53:00
9:53 AM,82.4,69.8,66,29.87,10.0,Calm,Calm,-,N/A,,Clear,0,2012-08-03 14:53:00
10:53 AM,86.0,70.0,59,29.83,10.0,Calm,Calm,-,N/A,,Clear,0,2012-08-03 15:53:00
11:53 AM,89.1,69.1,52,29.83,10.0,Variable,3.5,-,N/A,,Clear,0,2012-08-03 16:53:00
12:53 PM,91.0,69.1,48,29.83,10.0,ENE,10.4,-,0.00,,Clear,70,2012-08-03 17:53:00
1:53 PM,93.0,66.9,42,29.81,10.0,SE,4.6,-,0.00,,Clear,140,2012-08-03 18:53:00
2:53 PM,96.1,63.0,33,29.81,10.0,ESE,5.8,-,N/A,,Clear,120,2012-08-03 19:53:00
3:53 PM,97.0,64.0,34,29.78,10.0,East,10.4,-,0.00,Rain,Light Rain,90,2012-08-03 20:53:00
4:53 PM,96.1,61.0,31,29.77,10.0,ESE,11.5,-,0.00,,Clear,110,2012-08-03 21:53:00
5:53 PM,95.0,61.0,32,29.78,10.0,ESE,12.7,-,N/A,,Clear,110,2012-08-03 22:53:00
6:53 PM,91.9,62.1,37,29.78,10.0,ESE,9.2,-,N/A,,Clear,120,2012-08-03 23:53:00
7:53 PM,87.1,64.0,46,29.77,10.0,SE,9.2,-,N/A,,Clear,130,2012-08-04 00:53:00
8:53 PM,84.0,66.9,56,29.77,10.0,SE,9.2,-,0.00,,Clear,130,2012-08-04 01:53:00
9:53 PM,81.0,68.0,65,29.78,10.0,ESE,9.2,-,N/A,,Clear,120,2012-08-04 02:53:00
10:53 PM,80.1,69.1,69,29.79,10.0,SE,9.2,-,N/A,,Clear,130,2012-08-04 03:53:00
11:53 PM,77.0,68.0,74,29.81,10.0,ESE,4.6,-,N/A,,Clear,110,2012-08-04 04:53:00